SIA138 WSSS-WMKP

Flight info

Callsign SIA138
Flight time 1h 8m
Altitude 38000
Route AROSO3A AROSO Y513 KALIL Y504 BILIK Y506 TEPUS GORVU1F
Aircraft B38M/M-SDE1FGHILORVWXY/HB1

Departure

Time 2026-04-18 11:07
Airport Singapore Changi Airport (WSSS)

Arrival

Time 2026-04-18 12:16
Airport Penang International Airport (WMKP)
Time Latitude Longitude Altitude Speed Heading
2026-04-18 10:33 1.36166 103.98794 30 ft 0 kts 114°
2026-04-18 10:50 1.36170 103.98784 30 ft 3 kts 114°
2026-04-18 10:50 1.36178 103.98767 30 ft 3 kts 114°
2026-04-18 10:50 1.36182 103.98758 30 ft 2 kts 114°
2026-04-18 10:50 1.36189 103.98741 30 ft 3 kts 114°
2026-04-18 10:51 1.36197 103.98725 30 ft 3 kts 114°
2026-04-18 10:51 1.36204 103.98709 30 ft 2 kts 119°
2026-04-18 10:51 1.36216 103.98699 30 ft 2 kts 179°
2026-04-18 10:51 1.36224 103.98700 30 ft 0 kts 201°
2026-04-18 10:55 1.36221 103.98699 30 ft 2 kts 201°
2026-04-18 10:55 1.36195 103.98687 30 ft 9 kts 205°
2026-04-18 10:55 1.36123 103.98654 30 ft 10 kts 203°
2026-04-18 10:55 1.36068 103.98609 30 ft 11 kts 240°
2026-04-18 10:56 1.36026 103.98534 31 ft 13 kts 238°
2026-04-18 10:56 1.35945 103.98482 30 ft 15 kts 202°
2026-04-18 10:56 1.35839 103.98437 30 ft 18 kts 203°
2026-04-18 10:56 1.35719 103.98386 30 ft 20 kts 203°
2026-04-18 10:57 1.35585 103.98329 30 ft 22 kts 202°
2026-04-18 10:57 1.35438 103.98267 31 ft 24 kts 203°
2026-04-18 10:57 1.35278 103.98200 31 ft 26 kts 204°
2026-04-18 10:57 1.35108 103.98128 31 ft 26 kts 202°
2026-04-18 10:58 1.34968 103.98069 31 ft 21 kts 203°
2026-04-18 10:58 1.34856 103.98022 30 ft 12 kts 202°
2026-04-18 10:58 1.34795 103.98030 30 ft 10 kts 137°
2026-04-18 10:58 1.34764 103.98097 30 ft 12 kts 112°
2026-04-18 10:59 1.34722 103.98195 30 ft 20 kts 113°
2026-04-18 10:59 1.34655 103.98351 30 ft 28 kts 113°
2026-04-18 10:59 1.34576 103.98537 30 ft 29 kts 113°
2026-04-18 10:59 1.34497 103.98721 30 ft 28 kts 112°
2026-04-18 11:00 1.34431 103.98872 31 ft 16 kts 114°
2026-04-18 11:00 1.34391 103.98929 31 ft 10 kts 158°
2026-04-18 11:00 1.34324 103.98912 32 ft 11 kts 204°
2026-04-18 11:00 1.34246 103.98879 32 ft 13 kts 202°
2026-04-18 11:01 1.34153 103.98840 31 ft 16 kts 203°
2026-04-18 11:01 1.34045 103.98794 31 ft 18 kts 203°
2026-04-18 11:01 1.33922 103.98742 31 ft 20 kts 202°
2026-04-18 11:02 1.33606 103.98609 31 ft 29 kts 202°
2026-04-18 11:02 1.33418 103.98529 31 ft 30 kts 203°
2026-04-18 11:02 1.33230 103.98451 31 ft 29 kts 202°
2026-04-18 11:02 1.33087 103.98390 31 ft 20 kts 203°
2026-04-18 11:03 1.33003 103.98356 31 ft 8 kts 195°
2026-04-18 11:03 1.32955 103.98367 32 ft 6 kts 140°
2026-04-18 11:03 1.32945 103.98380 32 ft 0 kts 124°
2026-04-18 11:05 1.32942 103.98384 32 ft 1 kts 123°
2026-04-18 11:05 1.32934 103.98398 32 ft 3 kts 118°
2026-04-18 11:06 1.32915 103.98441 33 ft 11 kts 114°
2026-04-18 11:06 1.32898 103.98497 34 ft 7 kts 83°
2026-04-18 11:06 1.32936 103.98523 34 ft 10 kts 22°
2026-04-18 11:06 1.33102 103.98592 34 ft 55 kts 22°
2026-04-18 11:07 1.33656 103.98824 31 ft 116 kts 23°
2026-04-18 11:07 1.34556 103.99200 37 ft 162 kts 22°
2026-04-18 11:07 1.35625 103.99661 484 ft 167 kts 22°
2026-04-18 11:07 1.36743 104.00150 956 ft 182 kts 25°
2026-04-18 11:08 1.37950 104.00684 1346 ft 202 kts 26°
2026-04-18 11:08 1.39275 104.01290 1864 ft 216 kts 25°
2026-04-18 11:08 1.40679 104.01910 2382 ft 233 kts 24°
2026-04-18 11:08 1.42202 104.02539 3146 ft 235 kts 21°
2026-04-18 11:09 1.43729 104.03141 3813 ft 242 kts 22°
2026-04-18 11:09 1.45391 104.03470 4481 ft 253 kts 355°
2026-04-18 11:09 1.47098 104.02893 5014 ft 268 kts 329°
2026-04-18 11:09 1.48626 104.01785 5699 ft 274 kts 325°
2026-04-18 11:10 1.50167 104.00671 6480 ft 275 kts 325°
2026-04-18 11:10 1.51742 103.99547 7153 ft 280 kts 326°
2026-04-18 11:10 1.53347 103.98410 7832 ft 284 kts 326°
2026-04-18 11:10 1.54964 103.97271 8563 ft 286 kts 326°
2026-04-18 11:11 1.56614 103.96109 9220 ft 292 kts 326°
2026-04-18 11:11 1.58285 103.94936 9911 ft 295 kts 326°
2026-04-18 11:11 1.60006 103.93730 10287 ft 311 kts 326°
2026-04-18 11:11 1.61836 103.92452 10553 ft 328 kts 326°
2026-04-18 11:12 1.63743 103.91120 10928 ft 340 kts 325°
2026-04-18 11:12 1.65687 103.89756 11574 ft 342 kts 325°
2026-04-18 11:12 1.67625 103.88394 12185 ft 347 kts 326°
2026-04-18 11:12 1.69610 103.86998 12859 ft 351 kts 326°
2026-04-18 11:13 1.71618 103.85586 13563 ft 355 kts 326°
2026-04-18 11:13 1.73649 103.84158 14208 ft 358 kts 326°
2026-04-18 11:13 1.75703 103.82712 14852 ft 362 kts 326°
2026-04-18 11:13 1.77769 103.81259 15496 ft 365 kts 325°
2026-04-18 11:14 1.79861 103.79787 16108 ft 369 kts 325°
2026-04-18 11:14 1.81967 103.78305 16756 ft 371 kts 325°
2026-04-18 11:14 1.84096 103.76807 17318 ft 376 kts 325°
2026-04-18 11:14 1.86245 103.75295 17898 ft 379 kts 325°
2026-04-18 11:15 1.88385 103.73789 18363 ft 384 kts 325°
2026-04-18 11:15 1.90358 103.71981 18877 ft 385 kts 309°
2026-04-18 11:15 1.92022 103.69866 19362 ft 389 kts 308°
2026-04-18 11:15 1.93702 103.67725 19793 ft 393 kts 308°
2026-04-18 11:16 1.95383 103.65561 20307 ft 394 kts 308°
2026-04-18 11:16 1.97056 103.63395 20847 ft 395 kts 308°
2026-04-18 11:16 1.98745 103.61203 21304 ft 398 kts 308°
2026-04-18 11:16 2.00443 103.58997 21754 ft 401 kts 308°
2026-04-18 11:17 2.02146 103.56785 22250 ft 403 kts 308°
2026-04-18 11:17 2.03864 103.54551 22646 ft 408 kts 308°
2026-04-18 11:17 2.05579 103.52320 23082 ft 410 kts 308°
2026-04-18 11:17 2.07325 103.50051 23540 ft 412 kts 308°
2026-04-18 11:18 2.09079 103.47771 23916 ft 415 kts 308°
2026-04-18 11:18 2.10842 103.45480 24343 ft 416 kts 308°
2026-04-18 11:18 2.12613 103.43177 24718 ft 418 kts 308°
2026-04-18 11:18 2.14262 103.40772 25087 ft 421 kts 296°
2026-04-18 11:19 2.15270 103.38022 25487 ft 422 kts 287°
2026-04-18 11:19 2.16139 103.35202 25809 ft 426 kts 287°
2026-04-18 11:19 2.17001 103.32355 26192 ft 428 kts 287°
2026-04-18 11:19 2.17853 103.29489 26563 ft 431 kts 287°
2026-04-18 11:20 2.18691 103.26644 26921 ft 433 kts 287°
2026-04-18 11:20 2.19265 103.24686 27173 ft 435 kts 287°
2026-04-18 11:20 2.20397 103.20823 27651 ft 438 kts 286°
2026-04-18 11:20 2.20965 103.18884 27895 ft 439 kts 286°
2026-04-18 11:21 2.21826 103.15942 28237 ft 442 kts 286°
2026-04-18 11:21 2.22694 103.12980 28572 ft 444 kts 286°
2026-04-18 11:21 2.23568 103.09991 28914 ft 447 kts 286°
2026-04-18 11:21 2.24441 103.07012 29310 ft 448 kts 286°
2026-04-18 11:22 2.25318 103.04015 29635 ft 450 kts 286°
2026-04-18 11:22 2.26200 103.01002 29951 ft 452 kts 286°
2026-04-18 11:22 2.27083 102.97985 30224 ft 454 kts 286°
2026-04-18 11:22 2.27970 102.94952 30491 ft 456 kts 286°
2026-04-18 11:23 2.28863 102.91901 30758 ft 458 kts 286°
2026-04-18 11:23 2.29748 102.88877 31030 ft 460 kts 286°
2026-04-18 11:23 2.30650 102.85803 31280 ft 461 kts 286°
2026-04-18 11:23 2.31559 102.82711 31536 ft 463 kts 286°
2026-04-18 11:24 2.32468 102.79611 31789 ft 465 kts 286°
2026-04-18 11:24 2.33377 102.76496 32038 ft 467 kts 286°
2026-04-18 11:24 2.34289 102.73377 32271 ft 469 kts 286°
2026-04-18 11:24 2.35208 102.70235 32499 ft 471 kts 286°
2026-04-18 11:25 2.36130 102.67079 32750 ft 473 kts 286°
2026-04-18 11:25 2.37054 102.63916 32986 ft 475 kts 286°
2026-04-18 11:25 2.37981 102.60745 33260 ft 475 kts 285°
2026-04-18 11:25 2.38899 102.57600 33558 ft 475 kts 286°
2026-04-18 11:26 2.39826 102.54428 33877 ft 475 kts 286°
2026-04-18 11:26 2.40750 102.51264 34152 ft 474 kts 285°
2026-04-18 11:26 2.41674 102.48101 34428 ft 474 kts 285°
2026-04-18 11:26 2.42597 102.44944 34702 ft 473 kts 286°
2026-04-18 11:27 2.43517 102.41790 35010 ft 471 kts 285°
2026-04-18 11:27 2.44435 102.38646 35292 ft 471 kts 285°
2026-04-18 11:27 2.45355 102.35506 35566 ft 470 kts 287°
2026-04-18 11:27 2.46652 102.32519 35853 ft 468 kts 302°
2026-04-18 11:28 2.48514 102.29853 36134 ft 468 kts 305°
2026-04-18 11:28 2.50404 102.27202 36368 ft 468 kts 305°
2026-04-18 11:28 2.52312 102.24567 36621 ft 468 kts 306°
2026-04-18 11:28 2.54204 102.21980 36877 ft 467 kts 306°
2026-04-18 11:29 2.56161 102.19318 37136 ft 467 kts 306°
2026-04-18 11:29 2.58062 102.16735 37392 ft 466 kts 306°
2026-04-18 11:29 2.59987 102.14120 37655 ft 466 kts 306°
2026-04-18 11:29 2.61907 102.11512 37859 ft 466 kts 305°
2026-04-18 11:30 2.65755 102.06285 37832 ft 465 kts 305°
2026-04-18 11:30 2.69596 102.01067 37824 ft 465 kts 306°
2026-04-18 11:31 2.73429 101.95859 37830 ft 464 kts 306°
2026-04-18 11:31 2.77242 101.90677 37830 ft 465 kts 306°
2026-04-18 11:32 2.81080 101.85463 37825 ft 464 kts 306°
2026-04-18 11:32 2.84906 101.80262 37834 ft 464 kts 306°
2026-04-18 11:33 2.88738 101.75053 37837 ft 464 kts 306°
2026-04-18 11:33 2.92531 101.69897 37841 ft 464 kts 306°
2026-04-18 11:34 2.96369 101.64677 37852 ft 464 kts 306°
2026-04-18 11:34 3.00202 101.59463 37854 ft 466 kts 306°
2026-04-18 11:35 3.04038 101.54248 37856 ft 465 kts 306°
2026-04-18 11:35 3.07874 101.49029 37858 ft 466 kts 306°
2026-04-18 11:36 3.11711 101.43810 37853 ft 465 kts 306°
2026-04-18 11:36 3.15549 101.38588 37850 ft 465 kts 306°
2026-04-18 11:37 3.19357 101.33406 37839 ft 464 kts 306°
2026-04-18 11:37 3.23180 101.28202 37834 ft 464 kts 306°
2026-04-18 11:38 3.27003 101.22999 37827 ft 464 kts 306°
2026-04-18 11:38 3.30831 101.17788 37825 ft 464 kts 306°
2026-04-18 11:39 3.35101 101.12988 37800 ft 462 kts 326°
2026-04-18 11:39 3.40826 101.10019 37803 ft 466 kts 334°
2026-04-18 11:40 3.46723 101.07296 37827 ft 467 kts 335°
2026-04-18 11:40 3.52644 101.04628 37825 ft 467 kts 335°
2026-04-18 11:41 3.58534 101.01985 37827 ft 467 kts 335°
2026-04-18 11:41 3.64493 100.99312 37656 ft 462 kts 335°
2026-04-18 11:42 3.67403 100.98011 36774 ft 466 kts 336°
2026-04-18 11:42 3.70405 100.96677 35668 ft 477 kts 336°
2026-04-18 11:42 3.73445 100.95324 35009 ft 477 kts 335°
2026-04-18 11:42 3.76466 100.93980 34433 ft 474 kts 335°
2026-04-18 11:43 3.79470 100.92643 33748 ft 475 kts 335°
2026-04-18 11:43 3.82509 100.91290 32974 ft 475 kts 335°
2026-04-18 11:43 3.85519 100.89950 32337 ft 473 kts 335°
2026-04-18 11:43 3.88511 100.88618 31802 ft 468 kts 335°
2026-04-18 11:44 3.91477 100.87297 31275 ft 464 kts 335°
2026-04-18 11:44 3.94415 100.85989 30706 ft 461 kts 335°
2026-04-18 11:44 3.97347 100.84683 30126 ft 459 kts 335°
2026-04-18 11:44 4.00261 100.83385 29468 ft 458 kts 335°
2026-04-18 11:45 4.03166 100.82091 28849 ft 455 kts 335°
2026-04-18 11:45 4.06049 100.80807 28305 ft 451 kts 336°
2026-04-18 11:45 4.08864 100.79554 27763 ft 447 kts 336°
2026-04-18 11:45 4.11691 100.78294 27220 ft 443 kts 336°
2026-04-18 11:46 4.14506 100.77040 26679 ft 440 kts 336°
2026-04-18 11:46 4.17300 100.75805 26106 ft 438 kts 336°
2026-04-18 11:46 4.20105 100.74586 25493 ft 438 kts 336°
2026-04-18 11:46 4.22892 100.73372 25018 ft 435 kts 336°
2026-04-18 11:47 4.25661 100.72166 24502 ft 433 kts 336°
2026-04-18 11:47 4.28419 100.70964 23986 ft 431 kts 336°
2026-04-18 11:47 4.31160 100.69768 23478 ft 429 kts 336°
2026-04-18 11:47 4.33903 100.68573 22892 ft 427 kts 336°
2026-04-18 11:48 4.36596 100.67399 22678 ft 416 kts 336°
2026-04-18 11:48 4.39213 100.66257 22462 ft 406 kts 336°
2026-04-18 11:48 4.41756 100.65148 22022 ft 402 kts 336°
2026-04-18 11:48 4.44328 100.64026 21510 ft 401 kts 336°
2026-04-18 11:49 4.46879 100.62914 21047 ft 399 kts 336°
2026-04-18 11:49 4.49421 100.61805 20599 ft 397 kts 336°
2026-04-18 11:49 4.51946 100.60703 20151 ft 395 kts 336°
2026-04-18 11:49 4.54462 100.59606 19714 ft 392 kts 336°
2026-04-18 11:50 4.56959 100.58516 19282 ft 390 kts 336°
2026-04-18 11:50 4.59447 100.57431 18856 ft 389 kts 336°
2026-04-18 11:50 4.61924 100.56350 18438 ft 387 kts 336°
2026-04-18 11:50 4.64384 100.55276 18002 ft 385 kts 336°
2026-04-18 11:51 4.66804 100.54220 17539 ft 383 kts 336°
2026-04-18 11:51 4.69249 100.53153 17111 ft 380 kts 336°
2026-04-18 11:51 4.71667 100.52097 16693 ft 377 kts 336°
2026-04-18 11:51 4.74060 100.51052 16285 ft 374 kts 336°
2026-04-18 11:52 4.76442 100.50013 15879 ft 371 kts 336°
2026-04-18 11:52 4.78802 100.48982 15476 ft 369 kts 336°
2026-04-18 11:52 4.81128 100.47928 15042 ft 367 kts 330°
2026-04-18 11:52 4.83100 100.46329 14618 ft 365 kts 310°
2026-04-18 11:53 4.84672 100.44343 14241 ft 362 kts 308°
2026-04-18 11:53 4.86215 100.42362 13866 ft 359 kts 308°
2026-04-18 11:53 4.87740 100.40383 13457 ft 357 kts 307°
2026-04-18 11:53 4.89252 100.38406 13018 ft 356 kts 307°
2026-04-18 11:54 4.90732 100.36468 12619 ft 353 kts 307°
2026-04-18 11:54 4.92216 100.34520 12227 ft 350 kts 307°
2026-04-18 11:54 4.93691 100.32584 11839 ft 347 kts 307°
2026-04-18 11:54 4.95151 100.30666 11436 ft 345 kts 307°
2026-04-18 11:55 4.96602 100.28760 11071 ft 343 kts 308°
2026-04-18 11:55 4.98048 100.26860 10693 ft 341 kts 308°
2026-04-18 11:55 4.99482 100.24978 10397 ft 337 kts 308°
2026-04-18 11:55 5.00883 100.23136 10228 ft 328 kts 308°
2026-04-18 11:56 5.02248 100.21341 10088 ft 318 kts 308°
2026-04-18 11:56 5.03574 100.19600 9931 ft 310 kts 307°
2026-04-18 11:56 5.04577 100.17762 9729 ft 304 kts 287°
2026-04-18 11:56 5.04776 100.15670 9336 ft 304 kts 263°
2026-04-18 11:57 5.04105 100.13659 8831 ft 307 kts 237°
2026-04-18 11:57 5.02722 100.12088 8850 ft 297 kts 222°
2026-04-18 11:57 5.01194 100.10684 8849 ft 298 kts 221°
2026-04-18 11:57 4.99495 100.09513 8812 ft 295 kts 198°
2026-04-18 11:58 4.97497 100.09377 8804 ft 290 kts 164°
2026-04-18 11:58 4.95791 100.10380 8835 ft 287 kts 130°
2026-04-18 11:58 4.94962 100.12156 8892 ft 285 kts 95°
2026-04-18 11:58 4.95286 100.14082 8934 ft 284 kts 61°
2026-04-18 11:59 4.96652 100.15483 8978 ft 285 kts 29°
2026-04-18 11:59 4.98481 100.16214 8998 ft 289 kts 19°
2026-04-18 11:59 5.00399 100.16840 8992 ft 290 kts 19°
2026-04-18 11:59 5.02218 100.17669 8965 ft 287 kts 38°
2026-04-18 12:00 5.03713 100.18997 9008 ft 288 kts 43°
2026-04-18 12:00 5.04977 100.20529 8984 ft 286 kts 64°
2026-04-18 12:00 5.05454 100.22446 8996 ft 286 kts 90°
2026-04-18 12:00 5.05042 100.24390 8994 ft 288 kts 115°
2026-04-18 12:01 5.02074 100.26950 8996 ft 292 kts 163°
2026-04-18 12:01 5.00074 100.27151 8989 ft 294 kts 185°
2026-04-18 12:01 4.98124 100.26545 8988 ft 295 kts 210°
2026-04-18 12:02 4.96501 100.25276 8999 ft 298 kts 220°
2026-04-18 12:02 4.94917 100.23934 9003 ft 298 kts 220°
2026-04-18 12:02 4.93331 100.22580 8998 ft 299 kts 220°
2026-04-18 12:02 4.91762 100.21211 9000 ft 298 kts 221°
2026-04-18 12:03 4.90421 100.19633 8983 ft 297 kts 243°
2026-04-18 12:03 4.89899 100.17655 9000 ft 296 kts 270°
2026-04-18 12:03 4.90307 100.15650 8997 ft 295 kts 297°
2026-04-18 12:03 4.91542 100.14028 8995 ft 293 kts 322°
2026-04-18 12:04 4.93301 100.13086 9002 ft 291 kts 346°
2026-04-18 12:04 4.95304 100.12931 9003 ft 290 kts
2026-04-18 12:04 4.97194 100.13560 8993 ft 288 kts 32°
2026-04-18 12:04 4.98783 100.14773 9002 ft 288 kts 40°
2026-04-18 12:05 5.00319 100.16065 8990 ft 289 kts 41°
2026-04-18 12:05 5.01842 100.17381 8995 ft 288 kts 41°
2026-04-18 12:05 5.03349 100.18702 8982 ft 285 kts 41°
2026-04-18 12:05 5.04806 100.20000 8882 ft 276 kts 42°
2026-04-18 12:06 5.06205 100.21257 8824 ft 266 kts 42°
2026-04-18 12:06 5.07603 100.22518 8775 ft 276 kts 42°
2026-04-18 12:06 5.08557 100.23379 8738 ft 281 kts 42°
2026-04-18 12:06 5.10508 100.25144 8601 ft 286 kts 42°
2026-04-18 12:07 5.11984 100.26479 8365 ft 285 kts 42°
2026-04-18 12:07 5.13461 100.27816 8055 ft 286 kts 42°
2026-04-18 12:07 5.14933 100.29148 7745 ft 284 kts 42°
2026-04-18 12:07 5.16400 100.30476 7429 ft 283 kts 42°
2026-04-18 12:08 5.17855 100.31793 7129 ft 281 kts 42°
2026-04-18 12:08 5.18808 100.32657 7030 ft 275 kts 43°
2026-04-18 12:08 5.20031 100.34096 6794 ft 270 kts 57°
2026-04-18 12:08 5.21047 100.35682 6484 ft 270 kts 57°
2026-04-18 12:09 5.22071 100.37264 6163 ft 270 kts 57°
2026-04-18 12:09 5.23093 100.38837 5815 ft 270 kts 57°
2026-04-18 12:09 5.24119 100.40414 5475 ft 269 kts 56°
2026-04-18 12:09 5.25138 100.41979 5140 ft 263 kts 56°
2026-04-18 12:10 5.26108 100.43467 4867 ft 252 kts 57°
2026-04-18 12:10 5.27283 100.44707 4503 ft 244 kts 30°
2026-04-18 12:10 5.28893 100.45108 4143 ft 239 kts 358°
2026-04-18 12:10 5.30463 100.44655 3869 ft 232 kts 337°
2026-04-18 12:11 5.31930 100.44004 3677 ft 229 kts 338°
2026-04-18 12:11 5.33350 100.43347 3435 ft 219 kts 332°
2026-04-18 12:11 5.34595 100.42529 3143 ft 210 kts 321°
2026-04-18 12:11 5.35605 100.41517 2834 ft 201 kts 307°
2026-04-18 12:12 5.36294 100.40333 2560 ft 192 kts 291°
2026-04-18 12:12 5.36641 100.39081 2343 ft 182 kts 277°
2026-04-18 12:12 5.36706 100.37849 2118 ft 171 kts 266°
2026-04-18 12:12 5.36598 100.36788 1957 ft 156 kts 261°
2026-04-18 12:13 5.36399 100.35731 1867 ft 153 kts 256°
2026-04-18 12:13 5.36121 100.34713 1709 ft 150 kts 251°
2026-04-18 12:13 5.35752 100.33738 1469 ft 149 kts 244°
2026-04-18 12:13 5.35239 100.32833 1204 ft 150 kts 234°
2026-04-18 12:14 5.34547 100.32051 978 ft 150 kts 224°
2026-04-18 12:14 5.33766 100.31349 791 ft 150 kts 220°
2026-04-18 12:14 5.32982 100.30647 652 ft 152 kts 220°
2026-04-18 12:14 5.32203 100.29922 462 ft 153 kts 218°
2026-04-18 12:15 5.31423 100.29222 232 ft 152 kts 219°
2026-04-18 12:15 5.30636 100.28518 29 ft 148 kts 219°
2026-04-18 12:15 5.29983 100.27929 22 ft 94 kts 223°
2026-04-18 12:15 5.29580 100.27565 21 ft 76 kts 222°
2026-04-18 12:16 5.29209 100.27230 22 ft 62 kts 223°
2026-04-18 12:16 5.29061 100.27082 23 ft 13 kts 253°
2026-04-18 12:16 5.29104 100.26999 22 ft 15 kts 313°
2026-04-18 12:16 5.29181 100.26918 21 ft 15 kts 313°
2026-04-18 12:17 5.29247 100.26847 21 ft 7 kts 312°
2026-04-18 12:17 5.29248 100.26812 21 ft 6 kts 234°
2026-04-18 12:17 5.29211 100.26776 21 ft 9 kts 223°
2026-04-18 12:17 5.29160 100.26729 21 ft 11 kts 221°
2026-04-18 12:18 5.29120 100.26693 21 ft 5 kts 221°
2026-04-18 12:18 5.29112 100.26672 21 ft 2 kts 276°
2026-04-18 12:18 5.29115 100.26664 21 ft 0 kts 306°